Dades meteomassalio
Diari Summary for Agost 13, 2017 Units:  Metric    English   Both
« Previous Day
Next Day »
Diari Semanal Mensual Anual Personalitzat
  Maxima: Minima: Mijana:
Temperatura: -17.8 °C -9.9 °C -4.8 °C
Rosada: -17.8 °C -13.5 °C -11.2 °C
Humitat: Humidity % 30 % 50 %
Velocitat del vent: 0 km/h 0 km/h 10.3 km/h
Racha vent: 0 km/h - -
Vent:- - SE
Pressio: 0 hPa 34337.4 hPa -
Pluja: 0 mm    
Historical Graphs
 
 
Tabular Data for Agost 13, 2017
Time Temperature Dew Point Pressure Wind Wind Speed Wind Gust Humidity Rainfall Rate (Hourly) solar Conditions
-17.8 °C -17.8 °C 0 hPa Calm     Humidity % 0 mm SolarRadiationWatts/m^2 W/m2 Conditions
00:04 -6.6 °C -12.9 °C 34510.1 hPa Calm     48 % 0 mm 0.0 W/m2 CLR
00:09 -6.8 °C -13.2 °C 34510.1 hPa Calm     47 % 0 mm 0.0 W/m2 CLR
00:14 -6.8 °C -12.9 °C 34510.1 hPa Calm     49 % 0 mm 0.0 W/m2 CLR
00:19 -6.9 °C -13 °C 34510.1 hPa Calm     49 % 0 mm 0.0 W/m2 CLR
00:24 -7 °C -13.1 °C 34510.1 hPa Calm     49 % 0 mm 0.0 W/m2 CLR
00:29 -7.1 °C -13.2 °C 34510.1 hPa Calm     49 % 0 mm 0.0 W/m2 CLR
00:34 -7.2 °C -13.1 °C 34510.1 hPa Calm     50 % 0 mm 0.0 W/m2 CLR
00:39 -7.3 °C -13.2 °C 34510.1 hPa Calm     50 % 0 mm 0.0 W/m2 CLR
00:44 -7.4 °C -13.3 °C 34510.1 hPa Calm     50 % 0 mm 0.0 W/m2 CLR
00:49 -7.4 °C -13.3 °C 34510.1 hPa Calm     50 % 0 mm 0.0 W/m2 CLR
00:54 -7.5 °C -13.2 °C 34510.1 hPa Calm     51 % 0 mm 0.0 W/m2 CLR
00:59 -7.5 °C -13.2 °C 34510.1 hPa Calm     51 % 0 mm 0.0 W/m2 CLR
01:04 -7.4 °C -13.2 °C 34510.1 hPa Calm     51 % 0 mm 0.0 W/m2 CLR
01:09 -7.5 °C -13.1 °C 34510.1 hPa Calm     52 % 0 mm 0.0 W/m2 CLR
01:14 -7.6 °C -13.2 °C 34510.1 hPa Calm     52 % 0 mm 0.0 W/m2 CLR
01:19 -7.7 °C -13.2 °C 34510.1 hPa Calm     52 % 0 mm 0.0 W/m2 CLR
01:24 -7.8 °C -13.2 °C 34510.1 hPa Calm     53 % 0 mm 0.0 W/m2 CLR
01:29 -7.8 °C -13.2 °C 34510.1 hPa Calm     53 % 0 mm 0.0 W/m2 CLR
01:34 -7.9 °C -13.3 °C 34510.1 hPa Calm     53 % 0 mm 0.0 W/m2 CLR
01:39 -7.9 °C -13.3 °C 34510.1 hPa Calm     53 % 0 mm 0.0 W/m2 CLR
01:44 -8 °C -13.2 °C 34510.1 hPa Calm     54 % 0 mm 0.0 W/m2 CLR
01:49 -8.1 °C -13.3 °C 34510.1 hPa Calm     54 % 0 mm 0.0 W/m2 CLR
01:54 -8.1 °C -13.2 °C 34510.1 hPa Calm     55 % 0 mm 0.0 W/m2 CLR
01:59 -8.2 °C -13.3 °C 34510.1 hPa Calm     55 % 0 mm 0.0 W/m2 CLR
02:04 -8.3 °C -13.3 °C 34510.1 hPa Calm     55 % 0 mm 0.0 W/m2 CLR
02:09 -8.3 °C -13.4 °C 34510.1 hPa Calm     55 % 0 mm 0.0 W/m2 CLR
02:14 -8.4 °C -13.5 °C 34510.1 hPa Calm     55 % 0 mm 0.0 W/m2 CLR
02:19 -8.5 °C -13.4 °C 34496.6 hPa Calm     56 % 0 mm 0.0 W/m2 CLR
02:24 -8.5 °C -13.3 °C 34496.6 hPa Calm     57 % 0 mm 0.0 W/m2 CLR
02:29 -8.6 °C -13.5 °C 34496.6 hPa Calm     56 % 0 mm 0.0 W/m2 CLR
02:34 -8.6 °C -13.5 °C 34496.6 hPa Calm     56 % 0 mm 0.0 W/m2 CLR
02:39 -8.7 °C -13.4 °C 34496.6 hPa Calm     57 % 0 mm 0.0 W/m2 CLR
02:44 -8.7 °C -13.4 °C 34496.6 hPa Calm     57 % 0 mm 0.0 W/m2 CLR
02:49 -8.8 °C -13.4 °C 34496.6 hPa Calm     58 % 0 mm 0.0 W/m2 CLR
02:54 -8.8 °C -13.4 °C 34496.6 hPa Calm     58 % 0 mm 0.0 W/m2 CLR
02:59 -8.8 °C -13.4 °C 34496.6 hPa Calm     58 % 0 mm 0.0 W/m2 CLR
03:04 -8.8 °C -13.4 °C 34496.6 hPa Calm     58 % 0 mm 0.0 W/m2 CLR
03:09 -8.9 °C -13.4 °C 34496.6 hPa Calm     59 % 0 mm 0.0 W/m2 CLR
03:14 -9 °C -13.4 °C 34496.6 hPa Calm     59 % 0 mm 0.0 W/m2 CLR
03:19 -9.1 °C -13.3 °C 34496.6 hPa Calm     60 % 0 mm 0.0 W/m2 CLR
03:24 -9.1 °C -13.2 °C 34496.6 hPa Calm     61 % 0 mm 0.0 W/m2 CLR
03:29 -9.1 °C -13.2 °C 34496.6 hPa Calm     61 % 0 mm 0.0 W/m2 CLR
03:34 -9 °C -12.9 °C 34496.6 hPa Calm     63 % 0 mm 0.0 W/m2 CLR
03:39 -9 °C -13 °C 34496.6 hPa Calm     62 % 0 mm 0.0 W/m2 CLR
03:44 -8.9 °C -12.9 °C 34496.6 hPa Calm     62 % 0 mm 0.0 W/m2 CLR
03:49 -8.8 °C -13 °C 34496.6 hPa Calm     61 % 0 mm 0.0 W/m2 CLR
03:54 -8.8 °C -13 °C 34496.6 hPa Calm     61 % 0 mm 0.0 W/m2 CLR
03:59 -8.8 °C -13 °C 34496.6 hPa Calm     61 % 0 mm 0.0 W/m2 CLR
04:04 -8.9 °C -13.1 °C 34496.6 hPa Calm     61 % 0 mm 0.0 W/m2 CLR
04:09 -8.9 °C -12.9 °C 34496.6 hPa Calm     62 % 0 mm 0.0 W/m2 CLR
04:14 -9 °C -13 °C 34496.6 hPa Calm     62 % 0 mm 0.0 W/m2 CLR
04:19 -9 °C -13.1 °C 34496.6 hPa Calm     62 % 0 mm 0.0 W/m2 CLR
04:24 -9.1 °C -13.1 °C 34496.6 hPa Calm     62 % 0 mm 0.0 W/m2 CLR
04:29 -9.1 °C -13.2 °C 34496.6 hPa Calm     62 % 0 mm 0.0 W/m2 CLR
04:34 -9.2 °C -13.1 °C 34496.6 hPa Calm     63 % 0 mm 0.0 W/m2 CLR
04:39 -9.2 °C -13.1 °C 34496.6 hPa Calm     63 % 0 mm 0.0 W/m2 CLR
04:44 -9.2 °C -13.1 °C 34496.6 hPa Calm     63 % 0 mm 0.0 W/m2 CLR
04:49 -9.1 °C -13 °C 34496.6 hPa Calm     63 % 0 mm 0.0 W/m2 CLR
04:54 -9.1 °C -13.1 °C 34496.6 hPa Calm     62 % 0 mm 0.0 W/m2 CLR
04:59 -9.1 °C -13.2 °C 34496.6 hPa Calm     62 % 0 mm 0.0 W/m2 CLR
05:04 -9.2 °C -13.2 °C 34496.6 hPa Calm     62 % 0 mm 0.0 W/m2 CLR
05:09 -9.3 °C -13.3 °C 34496.6 hPa Calm     62 % 0 mm 0.0 W/m2 CLR
05:16 -9.3 °C -13.3 °C 34496.6 hPa Calm     62 % 0 mm 0.0 W/m2 CLR
05:19 -9.3 °C -13.3 °C 34496.6 hPa Calm     62 % 0 mm 0.0 W/m2 CLR
05:21 -9.3 °C -13.3 °C 34496.6 hPa Calm     62 % 0 mm 0.0 W/m2 CLR
05:23 -9.3 °C -13.3 °C 34496.6 hPa Calm     62 % 0 mm 0.0 W/m2 CLR
05:26 -9.3 °C -13.3 °C 34496.6 hPa Calm     62 % 0 mm 0.0 W/m2 CLR
05:27 -9.3 °C -13.3 °C 34496.6 hPa Calm     62 % 0 mm 0.0 W/m2 CLR
05:29 -9.3 °C -13.3 °C 34496.6 hPa Calm     62 % 0 mm 0.0 W/m2 CLR
05:32 -9.3 °C -13.3 °C 34496.6 hPa Calm     62 % 0 mm 0.0 W/m2 CLR
05:37 -9.2 °C -13.2 °C 34496.6 hPa Calm     62 % 0 mm 0.0 W/m2 CLR
05:42 -9.2 °C -13.2 °C 34496.6 hPa Calm     62 % 0 mm 0.0 W/m2 CLR
05:47 -9.2 °C -13.2 °C 34496.6 hPa Calm     62 % 0 mm 0.0 W/m2 CLR
05:52 -9.2 °C -13.2 °C 34496.6 hPa Calm     62 % 0 mm 0.0 W/m2 CLR
05:57 -9.3 °C -13.3 °C 34496.6 hPa Calm     62 % 0 mm 0.0 W/m2 CLR
06:02 -9.3 °C -13.4 °C 34496.6 hPa Calm     62 % 0 mm 0.0 W/m2 CLR
06:03 -9.3 °C -13.4 °C 34496.6 hPa Calm     62 % 0 mm 0.0 W/m2 CLR
06:08 -9.4 °C -13.3 °C 34496.6 hPa Calm     63 % 0 mm 0.0 W/m2 CLR
06:13 -9.5 °C -13.4 °C 34496.6 hPa Calm     63 % 0 mm 0.0 W/m2 CLR
06:18 -9.6 °C -13.4 °C 34496.6 hPa Calm     63 % 0 mm 0.0 W/m2 CLR
06:23 -9.6 °C -13.4 °C 34496.6 hPa Calm     63 % 0 mm 0.0 W/m2 CLR
06:28 -9.7 °C -13.4 °C 34496.6 hPa Calm     64 % 0 mm 0.0 W/m2 CLR
06:33 -9.7 °C -13.4 °C 34496.6 hPa Calm     64 % 0 mm 0.0 W/m2 CLR
06:38 -9.8 °C -13.4 °C 34496.6 hPa Calm     65 % 0 mm 0.0 W/m2 CLR
06:43 -9.9 °C -13.5 °C 34496.6 hPa Calm     65 % 0 mm 0.0 W/m2 CLR
06:48 -9.9 °C -13.3 °C 34496.6 hPa Calm     67 % 0 mm 0.0 W/m2 CLR
06:53 -9.9 °C -13.2 °C 34496.6 hPa Calm     67 % 0 mm 0.0 W/m2 CLR
06:58 -9.9 °C -13.2 °C 34496.6 hPa Calm     67 % 0 mm 0.0 W/m2 CLR
07:03 -9.9 °C -13.2 °C 34510.1 hPa Calm     68 % 0 mm 0.0 W/m2 OVC
07:08 -9.9 °C -13.2 °C 34510.1 hPa Calm     68 % 0 mm 0.0 W/m2 OVC
07:13 -9.9 °C -13 °C 34510.1 hPa Calm     69 % 0 mm 5.0 W/m2 OVC
07:18 -9.9 °C -13.2 °C 34510.1 hPa Calm     68 % 0 mm 9.0 W/m2 BKN
07:23 -9.9 °C -13.2 °C 34496.6 hPa Calm     68 % 0 mm 12.0 W/m2 BKN
07:28 -9.9 °C -13.1 °C 34510.1 hPa Calm     69 % 0 mm 14.0 W/m2 BKN
07:33 -9.9 °C -13 °C 34510.1 hPa Calm     69 % 0 mm 16.0 W/m2 BKN
07:38 -9.8 °C -12.9 °C 34510.1 hPa Calm     69 % 0 mm 21.0 W/m2 BKN
07:43 -9.7 °C -12.8 °C 34510.1 hPa Calm     69 % 0 mm 28.0 W/m2 BKN
07:48 -9.6 °C -12.7 °C 34510.1 hPa Calm     69 % 0 mm 39.0 W/m2 BKN
07:53 -9.5 °C -12.7 °C 34510.1 hPa Calm     69 % 0 mm 42.0 W/m2 BKN
07:58 -9.3 °C -12.6 °C 34510.1 hPa Calm     68 % 0 mm 54.0 W/m2 SCT
08:03 -9.2 °C -12.4 °C 34510.1 hPa Calm     68 % 0 mm 76.0 W/m2 FEW
08:08 -9.1 °C -12.3 °C 34510.1 hPa Calm     68 % 0 mm 77.0 W/m2 FEW
08:13 -8.9 °C -12.3 °C 34510.1 hPa Calm     67 % 0 mm 111.0 W/m2 CLR
08:18 -8.8 °C -12.2 °C 34510.1 hPa Calm     67 % 0 mm 127.0 W/m2 CLR
08:23 -8.6 °C -12.2 °C 34510.1 hPa Calm     66 % 0 mm 144.0 W/m2 CLR
08:28 -8.4 °C -12.1 °C 34510.1 hPa Calm     65 % 0 mm 160.0 W/m2 CLR
08:33 -8.1 °C -11.9 °C 34510.1 hPa Calm     64 % 0 mm 185.0 W/m2 CLR
08:38 -7.8 °C -11.8 °C 34510.1 hPa Calm     63 % 0 mm 200.0 W/m2 CLR
08:43 -7.6 °C -11.7 °C 34510.1 hPa Calm     62 % 0 mm 218.0 W/m2 CLR
08:48 -7.4 °C -11.7 °C 34510.1 hPa Calm     61 % 0 mm 236.0 W/m2 CLR
08:53 -7.3 °C -11.6 °C 34496.6 hPa Calm     61 % 0 mm 248.0 W/m2 CLR
08:58 -7.2 °C -11.4 °C 34496.6 hPa Calm     61 % 0 mm 258.0 W/m2 CLR
09:03 -6.9 °C -11.2 °C 34510.1 hPa Calm     61 % 0 mm 297.0 W/m2 CLR
09:08 -6.5 °C -11.1 °C 34510.1 hPa Calm     59 % 0 mm 315.0 W/m2 CLR
09:13 -6.2 °C -11.1 °C 34510.1 hPa Calm     57 % 0 mm 341.0 W/m2 CLR
09:18 -5.9 °C -11.2 °C 34496.6 hPa Calm     55 % 0 mm 362.0 W/m2 CLR
09:23 -5.6 °C -10.9 °C 34496.6 hPa Calm     55 % 0 mm 381.0 W/m2 CLR
09:28 -5.3 °C -11.1 °C 34496.6 hPa Calm     52 % 0 mm 227.0 W/m2 CLR
09:33 -5.1 °C -11.3 °C 34496.6 hPa Calm     49 % 0 mm 213.0 W/m2 CLR
09:38 -4.9 °C -11.6 °C 34496.6 hPa NW 12.9 km/h 12.9 km/h 47 % 0 mm 424.0 W/m2 CLR
09:43 -4.9 °C -11.6 °C 34496.6 hPa West 11.9 km/h 11.9 km/h 47 % 0 mm 462.0 W/m2 CLR
09:48 -4.8 °C -11.5 °C 34496.6 hPa NW 10.3 km/h 10.3 km/h 47 % 0 mm 485.0 W/m2 CLR
09:53 -4.7 °C -11.5 °C 34496.6 hPa WNW 9 km/h 9 km/h 46 % 0 mm 473.0 W/m2 CLR
09:58 -4.6 °C -11.4 °C 34496.6 hPa WNW 17.9 km/h 17.9 km/h 46 % 0 mm 345.0 W/m2 CLR
10:03 -4.6 °C -11.6 °C 34510.1 hPa WNW 9 km/h 9 km/h 45 % 0 mm 494.0 W/m2 CLR
10:08 -4.6 °C -11.6 °C 34510.1 hPa NW 15 km/h 15 km/h 45 % 0 mm 367.0 W/m2 CLR
10:13 -4.6 °C -11.6 °C 34510.1 hPa WNW 15 km/h 15 km/h 45 % 0 mm 515.0 W/m2 CLR
10:18 -4.5 °C -11.5 °C 34510.1 hPa WSW 15.6 km/h 15.6 km/h 45 % 0 mm 541.0 W/m2 CLR
10:23 -4.4 °C -11.6 °C 34510.1 hPa SW 15 km/h 15 km/h 44 % 0 mm 531.0 W/m2 CLR
10:28 -4.3 °C -11.5 °C 34510.1 hPa WNW 15 km/h 15 km/h 44 % 0 mm 589.0 W/m2 CLR
10:33 -4.2 °C -11.5 °C 34510.1 hPa West 10.3 km/h 10.3 km/h 44 % 0 mm 584.0 W/m2 CLR
10:38 -4.2 °C -11.6 °C 34510.1 hPa West 9 km/h 9 km/h 43 % 0 mm 563.0 W/m2 CLR
10:43 -4.1 °C -11.3 °C 34510.1 hPa NW 23.8 km/h 23.8 km/h 44 % 0 mm 608.0 W/m2 CLR
10:48 -4 °C -11.5 °C 34510.1 hPa NNW 17.9 km/h 17.9 km/h 43 % 0 mm 501.0 W/m2 CLR
10:53 -4 °C -11.5 °C 34510.1 hPa NNE 12.9 km/h 12.9 km/h 43 % 0 mm 596.0 W/m2 CLR
10:58 -3.8 °C -11.5 °C 34510.1 hPa West 9 km/h 9 km/h 42 % 0 mm 642.0 W/m2 CLR
11:03 -3.7 °C -11.4 °C 34510.1 hPa Calm     42 % 0 mm 643.0 W/m2 CLR
11:08 -3.5 °C -11.4 °C 34510.1 hPa NNW 17.9 km/h 17.9 km/h 41 % 0 mm 642.0 W/m2 CLR
11:13 -3.5 °C -11.4 °C 34496.6 hPa NNW 7.7 km/h 7.7 km/h 41 % 0 mm 673.0 W/m2 CLR
11:18 -3.4 °C -11.5 °C 34496.6 hPa Calm     40 % 0 mm 693.0 W/m2 CLR
11:23 -3.2 °C -11.4 °C 34496.6 hPa North 11.9 km/h 11.9 km/h 40 % 0 mm 719.0 W/m2 CLR
11:28 -3.2 °C -11.3 °C 34496.6 hPa North 15 km/h 15 km/h 40 % 0 mm 700.0 W/m2 CLR
11:33 -3.3 °C -11.6 °C 34496.6 hPa NNE 3.1 km/h   39 % 0 mm 719.0 W/m2 CLR
11:38 -3.3 °C -11.6 °C 34496.6 hPa Calm     39 % 0 mm 731.0 W/m2 CLR
11:43 -3.2 °C -11.5 °C 34496.6 hPa Calm     39 % 0 mm 693.0 W/m2 CLR
11:48 -2.9 °C -11.3 °C 34496.6 hPa ENE 9 km/h   39 % 0 mm 766.0 W/m2 CLR
11:53 -2.7 °C -11.3 °C 34496.6 hPa Calm     38 % 0 mm 708.0 W/m2 CLR
11:59 -2.4 °C -11.3 °C 34496.6 hPa Calm     37 % 0 mm 661.0 W/m2 CLR
12:04 -2.3 °C -11.2 °C 34486.4 hPa East 2.6 km/h 2.6 km/h 37 % 0 mm 800.0 W/m2 CLR
12:09 -2.4 °C -11.3 °C 34486.4 hPa SE 6 km/h 6 km/h 37 % 0 mm 791.0 W/m2 CLR
12:14 -2.5 °C -11.4 °C 34486.4 hPa Calm     37 % 0 mm 756.0 W/m2 CLR
12:19 -2.4 °C -11.1 °C 34486.4 hPa ENE 11.9 km/h   38 % 0 mm 789.0 W/m2 CLR
12:24 -2.3 °C -11.2 °C 34486.4 hPa NNE 15 km/h   37 % 0 mm 788.0 W/m2 CLR
12:29 -2.2 °C -11.2 °C 34486.4 hPa ENE 17.9 km/h 17.9 km/h 37 % 0 mm 791.0 W/m2 CLR
12:34 -2.2 °C -11.2 °C 34476.3 hPa ENE 9 km/h   37 % 0 mm 830.0 W/m2 CLR
12:39 -2.2 °C -11.3 °C 34476.3 hPa East 6 km/h 6 km/h 36 % 0 mm 831.0 W/m2 CLR
12:44 -2.3 °C -11.4 °C 34476.3 hPa Calm     36 % 0 mm 831.0 W/m2 CLR
12:49 -2.2 °C -11.6 °C 34476.3 hPa Calm     35 % 0 mm 791.0 W/m2 CLR
12:54 -2 °C -11.7 °C 34476.3 hPa Calm     34 % 0 mm 765.0 W/m2 CLR
12:59 -1.9 °C -11.6 °C 34476.3 hPa Calm     34 % 0 mm 853.0 W/m2 CLR
13:04 -1.9 °C -11.8 °C 34476.3 hPa West 3.1 km/h 3.1 km/h 33 % 0 mm 828.0 W/m2 CLR
13:09 -1.9 °C -11.6 °C 34462.7 hPa Calm     34 % 0 mm 868.0 W/m2 CLR
13:14 -1.8 °C -11.5 °C 34462.7 hPa East 20.9 km/h 20.9 km/h 34 % 0 mm 872.0 W/m2 CLR
13:19 -1.8 °C -11.3 °C 34462.7 hPa NE 3.1 km/h   35 % 0 mm 874.0 W/m2 CLR
13:24 -1.7 °C -11.2 °C 34462.7 hPa NNE 15 km/h 17.5 km/h 35 % 0 mm 877.0 W/m2 CLR
13:29 -1.7 °C -11.4 °C 34452.6 hPa NNE 9 km/h 9 km/h 34 % 0 mm 879.0 W/m2 CLR
13:34 -1.7 °C -11.2 °C 34452.6 hPa SW 9 km/h 9 km/h 35 % 0 mm 881.0 W/m2 CLR
13:39 -1.6 °C -11.1 °C 34452.6 hPa NE 15.6 km/h 15.6 km/h 35 % 0 mm 886.0 W/m2 CLR
13:44 -1.5 °C -11.2 °C 34452.6 hPa NNE 9 km/h 9 km/h 34 % 0 mm 884.0 W/m2 CLR
13:49 -1.4 °C -11.2 °C 34442.4 hPa NE 15.6 km/h 15.6 km/h 34 % 0 mm 888.0 W/m2 CLR
13:54 -1.3 °C -11 °C 34442.4 hPa NE 3.1 km/h 3.1 km/h 34 % 0 mm 889.0 W/m2 CLR
13:59 -1.1 °C -11.2 °C 34442.4 hPa Calm     33 % 0 mm 886.0 W/m2 CLR
14:04 -1.1 °C -11.1 °C 34442.4 hPa NNE 12.9 km/h 13.2 km/h 33 % 0 mm 891.0 W/m2 CLR
14:09 -1.1 °C -11.1 °C 34428.8 hPa North 15 km/h 15 km/h 33 % 0 mm 888.0 W/m2 CLR
14:14 -0.9 °C -11.2 °C 34428.8 hPa ENE 29.8 km/h 29.8 km/h 32 % 0 mm 889.0 W/m2 CLR
14:19 -0.9 °C -11 °C 34428.8 hPa ENE 9 km/h 10.3 km/h 33 % 0 mm 888.0 W/m2 CLR
14:24 -0.9 °C -10.9 °C 34428.8 hPa North 9 km/h 9 km/h 33 % 0 mm 886.0 W/m2 CLR
14:29 -0.7 °C -11.1 °C 34428.8 hPa ENE 29.8 km/h 29.8 km/h 32 % 0 mm 888.0 W/m2 CLR
14:34 -0.7 °C -11 °C 34418.7 hPa ENE 15 km/h 15 km/h 32 % 0 mm 882.0 W/m2 CLR
14:39 -0.7 °C -11.3 °C 34418.7 hPa ENE 20.9 km/h 20.9 km/h 31 % 0 mm 889.0 W/m2 CLR
14:44 -0.8 °C -11.2 °C 34418.7 hPa NW 9 km/h 9 km/h 32 % 0 mm 888.0 W/m2 CLR
14:49 -0.6 °C -11.4 °C 34418.7 hPa East 17.9 km/h 17.9 km/h 30 % 0 mm 798.0 W/m2 CLR
14:54 -0.4 °C -11.3 °C 34418.7 hPa NNE 15 km/h 15 km/h 30 % 0 mm 882.0 W/m2 CLR
14:59 -0.3 °C -11 °C 34405.1 hPa Calm     31 % 0 mm 877.0 W/m2 CLR
15:04 -0.2 °C -11.2 °C 34405.1 hPa East 23.8 km/h 23.8 km/h 30 % 0 mm 870.0 W/m2 CLR
15:09 -0.2 °C -11.1 °C 34405.1 hPa ENE 20.9 km/h 20.9 km/h 30 % 0 mm 865.0 W/m2 CLR
15:14 -0.1 °C -11.1 °C 34405.1 hPa East 17.9 km/h 17.9 km/h 30 % 0 mm 863.0 W/m2 CLR
15:19 -0.1 °C -11.1 °C 34405.1 hPa East 32.8 km/h 32.8 km/h 30 % 0 mm 858.0 W/m2 CLR
15:24 -0.4 °C -11.1 °C 34395 hPa ESE 20.8 km/h 20.8 km/h 31 % 0 mm 856.0 W/m2 CLR
15:29 -0.4 °C -10.7 °C 34395 hPa ENE 20.9 km/h 20.9 km/h 32 % 0 mm 775.0 W/m2 CLR
15:34 -0.4 °C -10.8 °C 34395 hPa Calm     32 % 0 mm 682.0 W/m2 CLR
15:39 -0.2 °C -10.7 °C 34395 hPa ESE 11.9 km/h 11.9 km/h 32 % 0 mm 802.0 W/m2 CLR
15:44 -0.3 °C -11 °C 34395 hPa Calm     31 % 0 mm 798.0 W/m2 CLR
15:49 -0.2 °C -9.8 °C 34395 hPa SE 35.7 km/h 35.7 km/h 35 % 0 mm 812.0 W/m2 CLR
15:54 -0.1 °C -9.8 °C 34384.8 hPa ESE 5.1 km/h 5.1 km/h 35 % 0 mm 800.0 W/m2 CLR
15:59 -0.1 °C -9.9 °C 34384.8 hPa East 20.9 km/h 20.9 km/h 34 % 0 mm 789.0 W/m2 CLR
16:04 -0.1 °C -10.4 °C 34384.8 hPa ESE 23.8 km/h 23.8 km/h 32 % 0 mm 779.0 W/m2 CLR
16:09 -0.2 °C -9.8 °C 34384.8 hPa ESE 15 km/h 15 km/h 35 % 0 mm 765.0 W/m2 CLR
16:14 -0.2 °C -9.3 °C 34384.8 hPa ESE 20.9 km/h 20.9 km/h 37 % 0 mm 752.0 W/m2 CLR
16:19 -0.1 °C -9.3 °C 34371.3 hPa NE 15 km/h 15 km/h 37 % 0 mm 744.0 W/m2 CLR
16:24 -0.1 °C -9.1 °C 34371.3 hPa ESE 26.9 km/h 26.9 km/h 38 % 0 mm 737.0 W/m2 CLR
16:29 -0.2 °C -8.7 °C 34371.3 hPa East 32.8 km/h 32.8 km/h 40 % 0 mm 714.0 W/m2 CLR
16:34 -0.4 °C -8.8 °C 34371.3 hPa East 35.7 km/h 35.7 km/h 40 % 0 mm 707.0 W/m2 CLR
16:39 -0.3 °C -8.6 °C 34371.3 hPa East 32.8 km/h 32.8 km/h 41 % 0 mm 698.0 W/m2 CLR
16:44 -0.3 °C -8.6 °C 34371.3 hPa East 23.8 km/h 23.8 km/h 41 % 0 mm 687.0 W/m2 CLR
16:49 -0.3 °C -8.4 °C 34361.1 hPa ENE 28.5 km/h 28.5 km/h 42 % 0 mm 668.0 W/m2 CLR
16:54 -0.3 °C -8.8 °C 34361.1 hPa ESE 29.8 km/h 29.8 km/h 40 % 0 mm 661.0 W/m2 CLR
16:59 -0.3 °C -8.5 °C 34361.1 hPa East 23.8 km/h 23.8 km/h 41 % 0 mm 647.0 W/m2 CLR
17:04 -0.3 °C -8.4 °C 34361.1 hPa East 28.5 km/h 28.5 km/h 42 % 0 mm 633.0 W/m2 CLR
17:09 -0.5 °C -8.3 °C 34361.1 hPa East 26.9 km/h 26.9 km/h 43 % 0 mm 624.0 W/m2 CLR
17:14 -0.4 °C -8.3 °C 34361.1 hPa ESE 26.9 km/h 26.9 km/h 43 % 0 mm 608.0 W/m2 CLR
17:19 -0.3 °C -8.3 °C 34361.1 hPa ESE 26.9 km/h 26.9 km/h 42 % 0 mm 594.0 W/m2 CLR
17:24 -0.4 °C -8.4 °C 34361.1 hPa SE 26.9 km/h 26.9 km/h 42 % 0 mm 584.0 W/m2 CLR
17:29 -0.4 °C -8.7 °C 34361.1 hPa SE 29.8 km/h 29.8 km/h 41 % 0 mm 570.0 W/m2 CLR
17:34 -0.5 °C -8.5 °C 34361.1 hPa SE 26.9 km/h 26.9 km/h 42 % 0 mm 552.0 W/m2 CLR
17:39 -0.4 °C -8.5 °C 34347.6 hPa ESE 26.9 km/h 26.9 km/h 42 % 0 mm 541.0 W/m2 CLR
17:44 -0.5 °C -8.6 °C 34361.1 hPa ESE 29.8 km/h 29.8 km/h 42 % 0 mm 531.0 W/m2 CLR
17:49 -0.6 °C -8.8 °C 34347.6 hPa ESE 23.8 km/h 23.8 km/h 41 % 0 mm 515.0 W/m2 CLR
17:54 -0.5 °C -8.5 °C 34347.6 hPa SE 35.7 km/h 35.7 km/h 42 % 0 mm 501.0 W/m2 CLR
17:59 -0.6 °C -8.4 °C 34347.6 hPa SSE 29.8 km/h 29.8 km/h 43 % 0 mm 478.0 W/m2 CLR
18:04 -0.6 °C -8.4 °C 34347.6 hPa ESE 29.8 km/h 29.8 km/h 43 % 0 mm 462.0 W/m2 CLR
18:09 -0.6 °C -8.2 °C 34347.6 hPa SE 23.8 km/h 23.8 km/h 44 % 0 mm 452.0 W/m2 CLR
18:14 -0.7 °C -8.3 °C 34347.6 hPa ESE 41.7 km/h 41.7 km/h 44 % 0 mm 438.0 W/m2 CLR
18:19 -0.8 °C -8.2 °C 34347.6 hPa SSE 29.8 km/h 29.8 km/h 45 % 0 mm 418.0 W/m2 CLR
18:20 -0.8 °C -8.2 °C 34347.6 hPa SE 35.7 km/h 35.7 km/h 45 % 0 mm 413.0 W/m2 CLR
18:25 -0.8 °C -8.4 °C 34347.6 hPa SSE 29.8 km/h 29.8 km/h 44 % 0 mm 397.0 W/m2 CLR
18:30 -0.8 °C -8.4 °C 34347.6 hPa SE 32.8 km/h 32.8 km/h 44 % 0 mm 385.0 W/m2 CLR
18:35 -0.9 °C -8.4 °C 34337.4 hPa ESE 41.7 km/h 41.7 km/h 44 % 0 mm 373.0 W/m2 CLR
18:40 -0.9 °C -8.5 °C 34347.6 hPa ESE 28.5 km/h 28.5 km/h 44 % 0 mm 357.0 W/m2 CLR
18:45 -1.1 °C -8.4 °C 34347.6 hPa East 38.8 km/h 38.8 km/h 45 % 0 mm 338.0 W/m2 CLR
18:50 -1.2 °C -8.5 °C 34337.4 hPa SE 35.7 km/h 35.7 km/h 45 % 0 mm 325.0 W/m2 CLR
18:55 -1.3 °C -8.6 °C 34337.4 hPa SE 38.8 km/h 38.8 km/h 45 % 0 mm 309.0 W/m2 CLR
19:00 -1.3 °C -8.7 °C 34337.4 hPa SE 41.4 km/h 41.4 km/h 45 % 0 mm 292.0 W/m2 CLR
19:05 -1.3 °C -8.7 °C 34347.6 hPa East 32.8 km/h 32.8 km/h 45 % 0 mm 278.0 W/m2 CLR
19:10 -1.3 °C -8.7 °C 34347.6 hPa SE 38.8 km/h 38.8 km/h 45 % 0 mm 262.0 W/m2 CLR
19:15 -1.4 °C -8.7 °C 34347.6 hPa SE 32.8 km/h 32.8 km/h 45 % 0 mm 243.0 W/m2 CLR
19:21 -1.4 °C -8.8 °C 34347.6 hPa East 32.8 km/h 32.8 km/h 45 % 0 mm 227.0 W/m2 CLR
19:25 -1.5 °C -8.8 °C 34347.6 hPa ESE 41.7 km/h 41.7 km/h 45 % 0 mm 209.0 W/m2 CLR
19:31 -1.6 °C -8.8 °C 34347.6 hPa East 26.9 km/h 26.9 km/h 45 % 0 mm 193.0 W/m2 CLR
19:36 -1.6 °C -9.1 °C 34337.4 hPa SE 38.8 km/h 38.8 km/h 44 % 0 mm 179.0 W/m2 CLR
19:37 -1.6 °C -8.9 °C 34337.4 hPa SE 38.8 km/h 38.8 km/h 45 % 0 mm 178.0 W/m2 CLR
19:42 -1.7 °C -9.2 °C 34337.4 hPa ESE 38.8 km/h 38.8 km/h 44 % 0 mm 156.0 W/m2 CLR
19:47 -1.7 °C -9.6 °C 34337.4 hPa SE 31.1 km/h 31.1 km/h 42 % 0 mm 141.0 W/m2 CLR
19:52 -1.7 °C -9.4 °C 34337.4 hPa SE 26.9 km/h 26.9 km/h 43 % 0 mm 125.0 W/m2 CLR
19:57 -1.7 °C -9.2 °C 34337.4 hPa SSE 29.8 km/h 29.8 km/h 44 % 0 mm 109.0 W/m2 CLR
20:02 -1.8 °C -9.4 °C 34347.6 hPa SE 29.8 km/h 29.8 km/h 43 % 0 mm 91.0 W/m2 CLR
20:07 -1.8 °C -9.5 °C 34347.6 hPa ESE 29.8 km/h 29.8 km/h 43 % 0 mm 77.0 W/m2 FEW
20:12 -1.8 °C -9.3 °C 34347.6 hPa SSE 23.8 km/h 23.8 km/h 44 % 0 mm 63.0 W/m2 SCT
20:17 -1.9 °C -9.2 °C 34361.1 hPa SE 26.9 km/h 26.9 km/h 45 % 0 mm 54.0 W/m2 SCT
20:22 -1.9 °C -9.2 °C 34361.1 hPa SE 29.8 km/h 29.8 km/h 45 % 0 mm 46.0 W/m2 SCT
20:27 -2 °C -9.1 °C 34361.1 hPa SE 29.8 km/h 29.8 km/h 46 % 0 mm 33.0 W/m2 BKN
20:32 -2.1 °C -9.2 °C 34347.6 hPa SE 26.9 km/h 26.9 km/h 46 % 0 mm 25.0 W/m2 BKN
20:37 -2.2 °C -9.1 °C 34361.1 hPa SE 25.9 km/h 25.9 km/h 47 % 0 mm 19.0 W/m2 BKN
20:42 -2.3 °C -9.1 °C 34361.1 hPa SSE 26.9 km/h 26.9 km/h 47 % 0 mm 14.0 W/m2 BKN
20:47 -2.3 °C -9 °C 34361.1 hPa SSE 23.8 km/h 23.8 km/h 48 % 0 mm 11.0 W/m2 BKN
20:52 -2.4 °C -8.8 °C 34361.1 hPa SE 23.8 km/h 23.8 km/h 49 % 0 mm 11.0 W/m2 BKN
20:57 -2.4 °C -8.8 °C 34361.1 hPa South 26.9 km/h 26.9 km/h 50 % 0 mm 12.0 W/m2 BKN
21:02 -2.4 °C -8.6 °C 34371.3 hPa South 20.9 km/h 20.9 km/h 51 % 0 mm 11.0 W/m2 BKN
21:07 -2.6 °C -8.6 °C 34361.1 hPa South 26.9 km/h 26.9 km/h 52 % 0 mm 0.0 W/m2 OVC
21:12 -2.7 °C -8.6 °C 34361.1 hPa South 23.8 km/h 23.8 km/h 52 % 0 mm 0.0 W/m2 CLR
21:17 -2.7 °C -8.5 °C 34361.1 hPa SSE 26.9 km/h 26.9 km/h 53 % 0 mm 0.0 W/m2 CLR
21:22 -2.8 °C -8.7 °C 34361.1 hPa SSE 32.8 km/h 32.8 km/h 52 % 0 mm 0.0 W/m2 CLR
21:27 -2.9 °C -8.7 °C 34361.1 hPa SSE 17.9 km/h 17.9 km/h 53 % 0 mm 0.0 W/m2 CLR
21:32 -2.9 °C -8.7 °C 34361.1 hPa SSE 23.8 km/h 23.8 km/h 53 % 0 mm 0.0 W/m2 CLR
21:37 -3 °C -8.8 °C 34361.1 hPa SSE 23.8 km/h 23.8 km/h 53 % 0 mm 0.0 W/m2 CLR
21:42 -3.1 °C -8.7 °C 34361.1 hPa SSE 26.9 km/h 26.9 km/h 54 % 0 mm 0.0 W/m2 CLR
21:47 -3.1 °C -8.7 °C 34361.1 hPa SSE 29.8 km/h 29.8 km/h 54 % 0 mm 0.0 W/m2 CLR
21:52 -3.2 °C -8.7 °C 34361.1 hPa South 15 km/h 15 km/h 54 % 0 mm 0.0 W/m2 CLR
21:57 -3.2 °C -8.8 °C 34361.1 hPa SSE 23.8 km/h 23.8 km/h 54 % 0 mm 0.0 W/m2 CLR
22:02 -3.2 °C -8.7 °C 34371.3 hPa SSE 15 km/h 15 km/h 55 % 0 mm 0.0 W/m2 CLR
22:07 -3.3 °C -8.7 °C 34371.3 hPa South 15 km/h 15 km/h 55 % 0 mm 0.0 W/m2 CLR
22:12 -3.3 °C -8.7 °C 34371.3 hPa SSE 11.9 km/h 11.9 km/h 55 % 0 mm 0.0 W/m2 CLR
22:17 -3.3 °C -8.7 °C 34384.8 hPa Calm     55 % 0 mm 0.0 W/m2 CLR
22:22 -3.4 °C -8.9 °C 34384.8 hPa Calm     54 % 0 mm 0.0 W/m2 CLR
22:23 -3.4 °C -8.8 °C 34384.8 hPa Calm     55 % 0 mm 0.0 W/m2 CLR
22:28 -3.4 °C -8.8 °C 34384.8 hPa Calm     55 % 0 mm 0.0 W/m2 CLR
22:33 -3.5 °C -9.1 °C 34384.8 hPa Calm     54 % 0 mm 0.0 W/m2 CLR
22:38 -3.6 °C -8.9 °C 34384.8 hPa Calm     55 % 0 mm 0.0 W/m2 CLR
22:43 -3.6 °C -9 °C 34395 hPa Calm     55 % 0 mm 0.0 W/m2 CLR
22:48 -3.7 °C -9.1 °C 34395 hPa Calm     55 % 0 mm 0.0 W/m2 CLR
22:53 -3.7 °C -8.9 °C 34395 hPa Calm     56 % 0 mm 0.0 W/m2 CLR
22:58 -3.8 °C -9 °C 34395 hPa Calm     56 % 0 mm 0.0 W/m2 CLR
23:03 -3.9 °C -9.1 °C 34384.8 hPa Calm     56 % 0 mm 0.0 W/m2 CLR
23:08 -4 °C -9.1 °C 34395 hPa Calm     57 % 0 mm 0.0 W/m2 CLR
23:13 -4.1 °C -9.2 °C 34395 hPa Calm     57 % 0 mm 0.0 W/m2 CLR
23:18 -4.2 °C -9.1 °C 34395 hPa Calm     58 % 0 mm 0.0 W/m2 CLR
23:23 -4.4 °C -9.1 °C 34395 hPa Calm     59 % 0 mm 0.0 W/m2 CLR
23:28 -4.5 °C -9.1 °C 34395 hPa Calm     60 % 0 mm 0.0 W/m2 CLR
23:33 -4.6 °C -9 °C 34395 hPa Calm     61 % 0 mm 0.0 W/m2 CLR
23:38 -4.7 °C -9.1 °C 34395 hPa Calm     61 % 0 mm 0.0 W/m2 CLR
23:43 -4.8 °C -9.2 °C 34395 hPa Calm     61 % 0 mm 0.0 W/m2 CLR
23:48 -4.9 °C -9.2 °C 34395 hPa Calm     62 % 0 mm 0.0 W/m2 CLR
23:53 -4.9 °C -9.1 °C 34395 hPa Calm     63 % 0 mm 0.0 W/m2 CLR
23:58 -5.1 °C -9.2 °C 34395 hPa Calm     63 % 0 mm 0.0 W/m2 CLR
Lo Temps de Massalio
Compliments of Weather Underground - 1.25 mb